User: anonymous   Login
Location: Unspecified
(0.0000°N, 0.0000°E)
Time: 19:44:57
(UTC+00:00)
Language:

Vanguard 1 - Orbit

View from above orbital plane
View from above orbital plane
View from above satellite
View from above satellite

Ground track
Ground track

The orbit data is extracted from the following two-line orbital elements,

1     5U 58002B   21214.54775765 -.00000124  00000-0 -13445-3 0  9995
2     5  34.2474  41.7735 1844465  42.3220 330.5839 10.84824080250006
Epoch (UTC): 02 August 2021 13:08:46
Eccentricity: 0.1844465
inclination: 34.2474°
perigee height: 652 km
apogee height: 3831 km
right ascension of ascending node: 41.7735°
argument of perigee: 42.3220°
revolutions per day: 10.84824080
mean anomaly at epoch: 330.5839°
orbit number at epoch: 25000

The dashed part of the orbit path shows where the satellite is in the earth's shadow,  

DLR